Torna al catalogo

STARLINK-36577

AttivoComunicazioniSSO
NORAD 67583·PAYLOAD·🇺🇸 United States

Lanciato Jan 25, 2026 da Vandenberg Space Force Base

Loading…

Prossimi Passaggi (prossime 24 ore)

TLE

AggiornatoSource: CelesTrak SupGP

Epoca: Sep 14, 2026, 22:39 UTC

1 67583C 26016Y   26257.94423611 -.00001370  00000+0 -42529-4 0  2571
2 67583  97.2848 316.7547 0001161  97.1039 255.3950 15.33439024    14

Traccia STARLINK-36577 in tempo reale con AllMySat

Download on the App Store